When you browse on this site, cookies collect data to enhance your experience and personalize the content and advertising you see.
Visit our Privacy Policy to learn more. By continuing to use the site, you agree to this use of cookies and data.
  • In United Kingdom
  • List of Countries
  • For 7 days
  • Water Temperature
  • Weather Map
  • Weather Widgets
  • user-avatar
    Login

    Hourly Weather Campulung Moldovenesc

    Today, 23 September, Monday

    Time Temperature Precipitation Wind Pressure Humidity
    00:00 +8°C° 0 mm 1 mps 681 mmHg 77%
    01:00 +7°C° 0 mm 1 mps 681 mmHg 76%
    02:00 +7°C° 0 mm 1 mps 680 mmHg 73%
    03:00 +7°C° 0 mm 1 mps 680 mmHg 72%
    04:00 +7°C° 0 mm 1 mps 680 mmHg 72%
    05:00 +7°C° 0 mm 1 mps 680 mmHg 71%
    06:00 +8°C° 0 mm 1 mps 680 mmHg 66%
    07:00 +9°C° 0 mm 0 mps 680 mmHg 62%
    08:00 +10°C° 0 mm 0 mps 681 mmHg 57%
    09:00 +13°C° 0 mm 0 mps 681 mmHg 52%
    10:00 +16°C° 0 mm 1 mps 681 mmHg 46%
    11:00 +19°C° 0 mm 1 mps 682 mmHg 41%
    12:00 +19°C° 0 mm 1 mps 682 mmHg 40%
    13:00 +20°C° 0 mm 1 mps 681 mmHg 40%
    14:00 +19°C° 0 mm 2 mps 681 mmHg 39%
    15:00 +18°C° 0 mm 2 mps 681 mmHg 45%
    16:00 +18°C° 0 mm 1 mps 680 mmHg 51%
    17:00 +16°C° 0 mm 1 mps 680 mmHg 56%
    18:00 +14°C° 0 mm 1 mps 680 mmHg 60%
    19:00 +13°C° 0 mm 1 mps 680 mmHg 65%
    20:00 +10°C° 0 mm 0 mps 680 mmHg 69%
    21:00 +10°C° 0 mm 0 mps 680 mmHg 71%
    22:00 +9°C° 0 mm 0 mps 680 mmHg 73%
    23:00 +10°C° 0 mm 1 mps 680 mmHg 75%

    Tomorrow, 24 September, Tuesday

    Time Temperature Precipitation Wind Pressure Humidity
    00:00 +8°C° 0 mm 0 mps 680 mmHg 80%
    01:00 +7°C° 0 mm 0 mps 680 mmHg 85%
    02:00 +6°C° 0 mm 0 mps 680 mmHg 90%
    03:00 +6°C° 0 mm 0 mps 679 mmHg 91%
    04:00 +6°C° 0 mm 0 mps 679 mmHg 92%
    05:00 +5°C° 0 mm 0 mps 679 mmHg 92%
    06:00 +7°C° 0 mm 0 mps 679 mmHg 87%
    07:00 +8°C° 0 mm 0 mps 680 mmHg 83%
    08:00 +9°C° 0 mm 0 mps 680 mmHg 78%
    09:00 +12°C° 0 mm 1 mps 680 mmHg 69%
    10:00 +14°C° 0 mm 1 mps 681 mmHg 61%
    11:00 +16°C° 0 mm 2 mps 681 mmHg 52%
    12:00 +17°C° 0 mm 2 mps 681 mmHg 51%
    13:00 +17°C° 0 mm 2 mps 681 mmHg 50%
    14:00 +17°C° 0 mm 2 mps 681 mmHg 49%
    15:00 +17°C° 0 mm 2 mps 680 mmHg 52%
    16:00 +16°C° 0 mm 2 mps 680 mmHg 55%
    17:00 +15°C° 0 mm 1 mps 680 mmHg 58%
    18:00 +13°C° 0 mm 1 mps 679 mmHg 66%
    19:00 +11°C° 0 mm 1 mps 679 mmHg 74%
    20:00 +8°C° 0 mm 0 mps 679 mmHg 82%
    21:00 +8°C° 0 mm 0 mps 679 mmHg 82%
    22:00 +8°C° 0 mm 1 mps 679 mmHg 83%
    23:00 +8°C° 0 mm 1 mps 679 mmHg 84%

    Day after tomorrow, 25 September, Wednesday

    Time Temperature Precipitation Wind Pressure Humidity
    00:00 +8°C° 0 mm 1 mps 679 mmHg 85%
    01:00 +8°C° 0 mm 1 mps 679 mmHg 86%
    02:00 +7°C° 0 mm 1 mps 679 mmHg 87%
    03:00 +7°C° 0 mm 1 mps 678 mmHg 87%
    04:00 +7°C° 0 mm 1 mps 678 mmHg 87%
    05:00 +7°C° 0 mm 1 mps 678 mmHg 88%
    06:00 +9°C° 0 mm 1 mps 679 mmHg 82%
    07:00 +10°C° 0 mm 1 mps 679 mmHg 76%
    08:00 +12°C° 0 mm 1 mps 679 mmHg 70%
    09:00 +14°C° 0 mm 1 mps 679 mmHg 63%
    10:00 +16°C° 0 mm 1 mps 680 mmHg 55%
    11:00 +19°C° 0 mm 1 mps 680 mmHg 48%
    12:00 +18°C° 0 mm 2 mps 680 mmHg 48%
    13:00 +18°C° 0 mm 2 mps 680 mmHg 49%
    14:00 +18°C° 0 mm 2 mps 680 mmHg 49%
    15:00 +16°C° 0.2 mm 2 mps 679 mmHg 60%
    16:00 +14°C° 0.2 mm 1 mps 679 mmHg 72%
    17:00 +13°C° 0.2 mm 1 mps 678 mmHg 83%
    18:00 +12°C° 0.3 mm 1 mps 678 mmHg 86%
    19:00 +11°C° 0.3 mm 1 mps 678 mmHg 90%
    20:00 +11°C° 0.3 mm 1 mps 678 mmHg 93%
    21:00 +11°C° 0.3 mm 1 mps 678 mmHg 94%
    22:00 +11°C° 0.3 mm 1 mps 678 mmHg 94%
    23:00 +11°C° 0.3 mm 1 mps 678 mmHg 95%

    26 September, Thursday

    Time Temperature Precipitation Wind Pressure Humidity
    00:00 +11°C° 0.2 mm 1 mps 678 mmHg 95%
    01:00 +10°C° 0.2 mm 1 mps 678 mmHg 95%
    02:00 +10°C° 0.2 mm 1 mps 678 mmHg 95%
    03:00 +10°C° 0.1 mm 1 mps 678 mmHg 95%
    04:00 +10°C° 0.1 mm 1 mps 678 mmHg 96%
    05:00 +10°C° 0.1 mm 1 mps 678 mmHg 96%
    06:00 +10°C° 0 mm 0 mps 678 mmHg 94%
    07:00 +10°C° 0 mm 0 mps 679 mmHg 92%
    08:00 +11°C° 0 mm 0 mps 679 mmHg 91%
    09:00 +12°C° 0 mm 0 mps 679 mmHg 82%
    10:00 +14°C° 0 mm 0 mps 680 mmHg 74%
    11:00 +16°C° 0 mm 0 mps 680 mmHg 66%
    12:00 +18°C° 0.3 mm 1 mps 680 mmHg 66%
    13:00 +18°C° 0.3 mm 1 mps 680 mmHg 66%
    14:00 +18°C° 0.3 mm 1 mps 680 mmHg 66%
    15:00 +16°C° 0.5 mm 1 mps 679 mmHg 72%
    16:00 +15°C° 0.5 mm 1 mps 679 mmHg 78%
    17:00 +14°C° 0.5 mm 1 mps 679 mmHg 83%
    18:00 +13°C° 0.7 mm 1 mps 679 mmHg 87%
    19:00 +12°C° 0.7 mm 1 mps 679 mmHg 91%
    20:00 +12°C° 0.7 mm 1 mps 679 mmHg 94%
    21:00 +11°C° 1.8 mm 1 mps 680 mmHg 95%
    22:00 +11°C° 1.8 mm 1 mps 680 mmHg 96%
    23:00 +11°C° 1.8 mm 1 mps 680 mmHg 97%

    27 September, Friday

    Time Temperature Precipitation Wind Pressure Humidity
    00:00 +11°C° 1.3 mm 1 mps 680 mmHg 97%
    01:00 +11°C° 1.3 mm 1 mps 680 mmHg 97%
    02:00 +11°C° 1.3 mm 1 mps 680 mmHg 97%
    03:00 +10°C° 0.6 mm 1 mps 680 mmHg 97%
    04:00 +10°C° 0.6 mm 1 mps 680 mmHg 97%
    05:00 +10°C° 0.6 mm 1 mps 681 mmHg 97%
    06:00 +10°C° 0.1 mm 1 mps 681 mmHg 96%
    07:00 +11°C° 0.1 mm 1 mps 681 mmHg 96%
    08:00 +11°C° 0.1 mm 1 mps 681 mmHg 95%
    09:00 +11°C° 0.2 mm 1 mps 681 mmHg 93%
    10:00 +12°C° 0.2 mm 1 mps 682 mmHg 91%
    11:00 +12°C° 0.2 mm 1 mps 682 mmHg 88%
    12:00 +13°C° 0.2 mm 1 mps 682 mmHg 86%
    13:00 +13°C° 0.2 mm 1 mps 682 mmHg 83%
    14:00 +14°C° 0.2 mm 1 mps 682 mmHg 80%
    15:00 +14°C° 0.2 mm 1 mps 682 mmHg 80%
    16:00 +14°C° 0.2 mm 1 mps 682 mmHg 81%
    17:00 +13°C° 0.2 mm 1 mps 682 mmHg 82%
    18:00 +11°C° 0.1 mm 0 mps 682 mmHg 84%
    19:00 +11°C° 0.1 mm 0 mps 682 mmHg 87%
    20:00 +10°C° 0.1 mm 0 mps 683 mmHg 90%
    21:00 +9°C° 0 mm 0 mps 683 mmHg 90%
    22:00 +9°C° 0 mm 0 mps 683 mmHg 91%
    23:00 +9°C° 0 mm 0 mps 683 mmHg 92%

    28 September, Saturday

    Time Temperature Precipitation Wind Pressure Humidity
    00:00 +9°C° 0 mm 1 mps 683 mmHg 93%
    01:00 +9°C° 0 mm 1 mps 683 mmHg 94%
    02:00 +8°C° 0 mm 1 mps 683 mmHg 95%
    03:00 +8°C° 0 mm 1 mps 682 mmHg 95%
    04:00 +8°C° 0 mm 1 mps 682 mmHg 95%
    05:00 +8°C° 0 mm 1 mps 682 mmHg 95%
    06:00 +9°C° 0 mm 1 mps 683 mmHg 93%
    07:00 +10°C° 0 mm 1 mps 683 mmHg 90%
    08:00 +11°C° 0 mm 1 mps 683 mmHg 87%
    09:00 +13°C° 0 mm 1 mps 683 mmHg 77%
    10:00 +15°C° 0 mm 1 mps 684 mmHg 67%
    11:00 +18°C° 0 mm 1 mps 684 mmHg 57%
    12:00 +19°C° 0 mm 1 mps 684 mmHg 53%
    13:00 +19°C° 0 mm 1 mps 684 mmHg 49%
    14:00 +20°C° 0 mm 1 mps 684 mmHg 45%
    15:00 +19°C° 0 mm 1 mps 683 mmHg 51%
    16:00 +18°C° 0 mm 1 mps 683 mmHg 57%
    17:00 +16°C° 0 mm 1 mps 682 mmHg 63%
    18:00 +14°C° 0 mm 1 mps 682 mmHg 69%
    19:00 +13°C° 0 mm 1 mps 682 mmHg 75%
    20:00 +11°C° 0 mm 1 mps 681 mmHg 82%
    21:00 +10°C° 0 mm 1 mps 681 mmHg 83%
    22:00 +10°C° 0 mm 1 mps 681 mmHg 85%
    23:00 +10°C° 0 mm 1 mps 681 mmHg 87%
    Show more